F5IOR-13 Weather Reports


time (UTC)temp
C
wind
direction
speed
KPH
gust
KPH
rain 1hr
cm
rain 24hr
cm
rain mn
cm
humidity
%
barometer
mb
20260507083417 12 6 3.2 6.4 0.00 0.00 0.00 84 986.5
20260507082617 12 6 3.2 6.4 0.00 0.00 0.00 84 986.5
20260507081817 12 6 3.2 6.4 0.00 0.00 0.00 84 986.5
20260507081017 11 7 1.6 6.4 0.00 0.00 0.00 86 986.4
20260507080217 11 7 1.6 6.4 0.00 0.00 0.00 86 986.4
20260507075817 11 360 1.6 6.4 0.00 0.00 0.00 88 986.4
20260507075417 11 360 1.6 6.4 0.00 0.00 0.00 88 986.4
20260507075017 11 360 1.6 6.4 0.00 0.00 0.00 88 986.4
20260507074617 11 360 1.6 6.4 0.00 0.00 0.00 88 986.4
20260507074417 11 360 1.6 6.4 0.00 0.00 0.00 88 986.4
20260507074217 11 360 1.6 6.4 0.00 0.00 0.00 88 986.4
20260507074017 11 360 1.6 6.4 0.00 0.00 0.00 88 986.4
20260507073817 11 360 1.6 6.4 0.00 0.00 0.00 88 986.4
20260507073717 11 360 1.6 6.4 0.00 0.00 0.00 88 986.4
20260507073617 11 360 1.6 6.4 0.00 0.00 0.00 88 986.4
20260507073517 11 360 1.6 6.4 0.00 0.00 0.00 88 986.4
20260506190817 11 300 4.8 9.7 0.23 0.00 0.23 89 982.9
20260506183817 12 298 4.8 9.7 0.23 0.00 0.23 88 982.4
20260506180817 12 306 6.4 12.9 0.23 0.00 0.23 85 982.0
20260506173817 12 323 6.4 19.3 0.23 0.00 0.23 82 981.7
20260506170817 12 315 8.0 24.1 0.23 0.00 0.23 81 981.9
20260506163817 12 343 4.8 22.5 0.13 0.00 0.13 85 981.7
20260506160817 12 354 6.4 25.7 0.13 0.00 0.13 86 981.7
20260506153817 12 347 8.0 33.8 0.13 0.00 0.13 84 981.8
20260506150817 12 311 8.0 35.4 0.13 0.00 0.13 77 981.7
20260506143817 15 253 12.9 32.2 0.13 0.00 0.13 65 981.3
20260506140817 15 241 16.1 30.6 0.13 0.00 0.13 60 981.1
20260506133817 14 230 14.5 32.2 0.33 0.00 0.33 64 981.2
20260506130817 15 240 12.9 27.4 0.33 0.00 0.33 66 981.3
20260506123817 15 240 12.9 27.4 0.33 0.00 0.33 68 981.3
20260506120817 14 244 14.5 29.0 0.33 0.00 0.33 71 981.5
20260506113817 13 250 14.5 29.0 0.33 0.00 0.33 71 981.6
20260506110817 13 258 14.5 29.0 0.23 0.00 0.23 73 981.8
20260506103817 12 259 14.5 29.0 0.23 0.00 0.23 75 981.9
20260506100817 12 259 14.5 27.4 0.23 0.00 0.23 80 981.8
20260506093817 12 259 14.5 27.4 0.23 0.00 0.23 80 981.8
20260506092217 11 258 14.5 25.7 0.23 0.00 0.23 82 981.8
20260506090616 11 257 14.5 25.7 0.23 0.00 0.23 83 981.7
20260506085017 11 255 14.5 25.7 0.23 0.00 0.23 84 981.4